This is the latest recevied weather packets stored in our database for station/object EA7RX-4. If no packets are shown the sender has not sent any weather packets the latest 10 day(s).
| Time | Temp. | Humidity | Pressure | Rain* | Wind** | Luminosity | Snow |
|---|---|---|---|---|---|---|---|
| 1788021003 | 27.22° C | 24% | 1018.5 hPa | 0 mm | - | 289 W/m² | - |
| 1788020403 | 27.22° C | 25% | 1018.5 hPa | 0 mm | - | 327 W/m² | - |
| 1788019803 | 27.78° C | 24% | 1018.6 hPa | 0 mm | - | 366 W/m² | - |
| 1788019203 | 27.22° C | 23% | 1018.6 hPa | 0 mm | - | 406 W/m² | - |
| 1788018603 | 27.22° C | 24% | 1018.3 hPa | 0 mm | - | 443 W/m² | - |
| 1788018003 | 27.22° C | 24% | 1018.6 hPa | 0 mm | - | 479 W/m² | - |
| 1788017403 | 27.78° C | 22% | 1018.7 hPa | 0 mm | - | 519 W/m² | - |
| 1788016803 | 27.22° C | 23% | 1018.7 hPa | 0 mm | - | 548 W/m² | - |
| 1788016203 | 27.22° C | 24% | 1018.7 hPa | 0 mm | - | 579 W/m² | - |
| 1788015603 | 27.22° C | 26% | 1019.2 hPa | 0 mm | - | 605 W/m² | - |
| 1788015003 | 27.22° C | 25% | 1019 hPa | 0 mm | - | 634 W/m² | - |
| 1788014403 | 26.67° C | 25% | 1018.9 hPa | 0 mm | - | 660 W/m² | - |
| 1788013803 | 27.22° C | 24% | 1019.2 hPa | 0 mm | - | 694 W/m² | - |
| 1788013203 | 26.67° C | 25% | 1019.4 hPa | 0 mm | - | 717 W/m² | - |
| 1788012603 | 27.22° C | 24% | 1019.5 hPa | 0 mm | - | 745 W/m² | - |
| 1788012003 | 26.67° C | 25% | 1019.4 hPa | 0 mm | - | 765 W/m² | - |
| 1788011403 | 26.11° C | 26% | 1019.8 hPa | 0 mm | - | 786 W/m² | - |
| 1788010803 | 26.11° C | 27% | 1019.7 hPa | 0 mm | - | 804 W/m² | - |
| 1788010203 | 26.67° C | 26% | 1019.8 hPa | 0 mm | - | 823 W/m² | - |
| 1788009603 | 25.56° C | 26% | 1020 hPa | 0 mm | - | 836 W/m² | - |
| 1788009003 | 26.11° C | 26% | 1020 hPa | 0 mm | - | 849 W/m² | - |
| 1788008403 | 26.11° C | 27% | 1020 hPa | 0 mm | - | 861 W/m² | - |
| 1788007803 | 25.56° C | 28% | 1020 hPa | 0 mm | - | 868 W/m² | - |
| 1788007203 | 25.56° C | 29% | 1020.1 hPa | 0 mm | - | 876 W/m² | - |
| 1788006603 | 26.11° C | 31% | 1019.9 hPa | 0 mm | - | 878 W/m² | - |
* Rain latest hour (hover to see other rain measurements)
** Current wind speed in m/s (hover to see current wind gust speed)